Theta_e
303 303 303 303 304 304 304 304 305 305 305 305 305 304 306 306 306 306 306 306 307 308 307 309 311 312 314 313 313 313 308 310 311 311 311 308 310 310 311 312 310 309 308 311 313
303 303 302 303 304 304 304 305 305 305 305 305 305 304 305 306 306 306 306 305 307 307 307 308 310 311 310 309 309 308 307 309 306 306 306 306 309 310 310 309 308 307 306 309 312
304 303 303 303 304 305 305 305 304 305 306 306 305 305 305 305 306 307 306 306 306 307 307 307 308 308 306 306 305 305 306 306 306 307 306 308 309 309 308 308 307 306 304 306 312
305 304 303 303 304 305 305 304 304 305 305 306 306 308 307 307 306 307 307 306 306 306 306 306 306 307 305 304 305 305 305 306 306 308 308 307 308 307 308 307 306 304 304 304 307
305 304 304 303 304 304 305 305 304 305 305 306 306 306 306 306 306 307 309 309 307 306 306 307 307 306 304 305 306 305 306 306 306 308 307 307 306 306 307 306 304 304 303 303 303
304 304 304 303 303 303 304 304 305 304 305 306 306 307 307 306 307 308 309 308 309 308 307 308 307 307 306 305 305 306 306 305 306 306 306 306 305 305 304 306 304 303 303 303 303
304 305 305 304 304 303 304 304 305 304 305 305 305 306 306 306 307 309 309 308 308 308 308 308 308 309 307 306 306 305 306 305 304 305 305 305 304 304 304 304 303 303 303 302 302
304 304 305 304 304 303 304 304 304 305 305 306 306 306 306 307 307 307 309 310 309 308 309 310 309 308 308 306 305 304 302 304 304 305 305 305 305 304 304 303 303 303 302 302 301
304 304 304 305 304 304 304 304 305 305 306 306 305 306 305 307 308 307 309 309 308 307 307 307 307 307 305 301 302 302 304 305 304 303 303 304 305 304 303 303 303 302 302 302 301
306 304 304 305 304 305 303 304 304 304 306 305 305 305 305 306 308 308 308 309 308 307 306 307 306 302 301 300 303 306 306 305 305 302 303 304 303 302 304 303 302 303 302 302 301
309 306 304 305 305 305 303 304 304 304 305 304 304 304 304 305 307 307 308 309 308 306 303 305 304 305 304 303 304 304 305 305 302 302 304 304 303 303 303 302 302 303 303 303 302
309 308 305 304 305 305 305 304 307 305 303 303 304 305 304 304 305 307 307 306 306 304 302 302 306 304 304 303 304 304 305 304 303 302 303 303 304 301 302 302 303 303 303 303 303
309 309 307 304 305 305 305 305 305 304 304 303 303 305 305 304 304 306 307 306 303 303 302 302 305 304 304 304 305 305 305 305 306 303 302 301 301 301 302 302 303 303 303 303 303
309 310 308 305 305 305 305 304 304 304 305 303 302 304 304 305 304 304 306 305 304 303 302 302 303 304 304 305 304 306 304 304 305 304 307 300 306 302 301 301 301 303 303 303 303
310 310 309 305 305 305 305 305 305 307 316 303 302 304 304 304 304 303 305 305 304 304 300 302 303 303 304 304 304 304 303 304 304 304 304 304 301 302 300 304 303 303 303 303 303
310 310 311 304 305 304 304 304 306 312 314 302 302 303 303 303 305 305 304 305 303 302 301 302 303 303 303 302 303 302 304 298 298 302 297 303 301 303 302 304 301 302 303 303 303
309 311 312 306 304 305 304 306 312 316 304 303 302 302 302 303 304 303 301 300 300 299 296 299 301 300 302 303 301 300 297 294 298 296 299 299 301 302 301 300 301 302 303 303 303
308 310 312 308 304 304 304 309 318 308 305 301 302 302 302 302 303 304 302 300 299 296 293 296 298 301 300 303 303 303 299 297 295 297 296 298 303 303 301 303 304 303 303 303 303
308 309 313 309 304 303 306 309 315 312 304 302 301 303 302 302 303 303 303 299 299 297 298 295 297 299 300 301 300 300 299 300 296 294 295 297 297 296 301 302 303 303 303 303 302
308 309 312 309 303 302 306 310 308 305 301 302 309 305 306 302 303 303 303 301 300 299 296 294 297 296 300 302 301 301 299 295 294 293 294 295 294 299 303 304 300 301 302 303 302
309 309 310 308 302 304 304 306 305 302 302 304 305 303 303 302 302 303 304 302 300 299 297 292 296 296 298 298 301 302 300 300 298 297 294 292 297 294 299 302 300 301 303 302 302
308 306 309 304 302 296 301 304 303 300 301 302 302 304 302 301 302 302 303 302 301 299 299 297 296 296 296 296 297 299 301 299 298 293 293 294 297 296 296 299 301 303 301 300 299
308 307 307 301 302 297 298 302 301 301 301 301 303 301 301 302 306 301 301 300 300 300 300 298 297 298 299 297 297 299 300 299 296 295 294 293 298 294 295 297 301 299 300 301 300
308 304 302 300 302 300 299 302 304 301 302 301 301 302 301 302 300 302 302 300 300 300 301 298 292 300 304 303 298 297 298 300 297 293 294 294 294 295 291 290 297 299 301 300 299
307 305 306 301 295 302 302 304 303 302 302 301 300 303 303 304 301 302 301 300 300 302 299 297 297 291 293 295 298 298 297 299 295 296 299 296 293 295 292 290 297 301 301 300 299
308 305 303 301 305 303 304 304 306 303 301 302 304 301 302 307 307 304 301 300 301 300 298 297 298 292 295 291 294 297 297 298 297 291 293 290 295 296 298 298 298 303 303 303 302
310 308 308 302 301 305 308 306 306 305 303 305 302 302 303 304 302 301 301 301 301 300 298 297 295 293 299 289 290 301 294 297 298 296 297 298 299 298 297 298 301 302 303 303 303
Wind_Speed
5 6 6 6 6 5 6 6 6 5 5 6 3 3 9 15 16 6 10 13 11 9 8 5 6 7 6 10 9 5 4 2 2 1 3 6 5 5 3 3 7 7 11 14 18
5 6 7 6 6 5 5 6 7 6 5 4 5 6 5 8 8 20 15 10 8 5 6 5 6 5 7 5 6 7 4 3 2 1 2 4 3 4 2 5 5 8 13 12 12
4 6 7 6 5 4 4 5 6 8 11 4 3 1 9 3 3 15 13 8 6 6 4 8 10 10 9 7 7 4 3 3 2 3 2 1 2 3 2 2 4 10 17 17 12
3 3 5 6 5 4 3 3 5 5 10 7 8 11 6 0 2 10 13 11 7 9 2 2 2 6 6 5 5 6 6 1 4 5 2 2 2 2 4 1 4 8 12 15 14
3 5 5 5 5 5 4 2 2 4 7 8 4 7 8 10 8 9 12 12 10 6 3 8 13 9 5 5 6 6 2 7 4 4 6 1 4 1 2 2 5 7 10 12 13
2 4 4 4 4 4 5 2 2 3 4 11 12 4 5 8 8 8 10 9 11 11 12 10 15 16 10 4 5 5 10 5 8 4 7 2 1 1 2 3 5 8 10 11 12
3 4 4 3 5 5 6 3 3 4 4 2 3 9 14 9 7 7 7 11 15 13 15 13 8 4 6 5 5 4 4 3 11 10 4 3 4 2 5 4 7 8 9 10 10
2 4 4 5 4 2 6 5 4 4 3 3 6 6 7 7 7 4 4 7 8 12 14 15 14 15 7 7 5 4 5 3 3 11 4 5 6 3 4 6 7 8 9 10 9
3 3 4 4 4 4 2 2 4 5 4 3 2 4 5 6 5 5 4 5 6 10 11 7 9 8 5 4 4 6 2 3 6 5 4 2 6 3 5 6 8 7 8 10 9
4 4 4 2 4 5 1 6 4 2 3 3 5 5 4 3 5 5 4 1 1 4 1 4 8 5 5 5 0 1 3 3 4 4 5 5 9 7 10 9 9 6 6 8 11
5 5 4 2 2 4 3 4 2 2 7 8 5 9 7 7 7 3 3 3 3 6 5 8 8 5 4 3 1 1 3 3 4 0 5 3 9 12 14 10 12 8 7 8 10
6 5 5 4 0 4 3 4 3 7 12 10 9 9 7 4 3 6 4 2 4 3 3 6 4 3 2 3 4 4 1 4 4 2 2 5 15 7 4 7 9 11 10 9 11
7 4 3 6 1 2 2 3 8 8 6 5 6 5 3 4 5 8 4 5 7 5 5 6 2 0 2 4 3 1 2 2 3 6 0 6 6 5 3 5 11 15 14 12 11
8 4 2 6 2 3 5 7 4 3 4 3 3 3 2 3 5 8 5 3 5 4 3 6 1 3 2 2 2 2 2 2 2 3 2 5 4 5 4 7 6 14 14 14 11
9 5 5 2 2 4 6 6 2 1 3 0 2 1 4 3 3 5 6 4 4 4 3 2 2 3 3 1 2 3 2 2 1 2 1 4 3 6 4 5 4 11 12 8 10
11 8 5 4 4 5 7 8 5 6 4 1 1 1 1 4 2 2 3 6 5 4 6 2 2 2 1 2 2 4 1 4 3 1 4 2 3 5 3 4 6 8 12 10 9
12 11 8 6 4 5 7 5 5 3 4 2 2 2 2 2 3 3 3 4 2 4 3 4 2 2 3 3 0 2 3 3 6 5 4 0 1 8 6 5 5 10 13 12 11
13 13 10 8 7 8 7 3 4 3 4 1 1 2 2 1 1 1 3 1 1 5 4 4 5 1 3 2 2 2 1 5 4 2 5 3 4 4 4 9 12 13 13 14 13
15 14 13 9 9 11 5 2 8 6 9 7 1 2 2 1 1 0 0 4 3 4 6 4 3 2 4 1 3 4 3 1 7 3 2 3 6 8 3 5 7 13 11 12 13
18 13 13 13 13 11 3 6 4 4 9 6 3 1 3 3 2 2 3 3 4 2 2 4 2 2 1 0 2 2 5 3 4 3 5 4 5 4 5 5 6 10 16 15 14
18 7 10 17 15 7 4 6 4 7 6 4 4 4 3 4 3 3 3 2 3 4 5 3 3 3 2 3 5 1 1 4 5 3 4 2 5 7 6 4 6 13 17 19 20
17 3 13 22 6 5 4 7 7 6 5 4 7 0 6 6 5 3 4 2 8 11 6 5 4 2 4 2 1 3 3 2 4 3 1 3 6 4 8 11 10 15 17 19 21
13 7 14 26 5 3 2 1 5 6 6 5 5 6 1 4 1 4 3 1 9 7 5 6 1 2 5 4 4 4 4 3 4 3 6 5 6 2 9 13 10 12 20 14 13
13 3 7 19 7 6 5 5 6 3 5 6 7 9 2 2 3 2 4 3 7 4 3 6 2 6 6 5 4 3 4 5 4 4 5 7 8 10 8 8 10 16 9 9 10
22 8 14 6 8 9 6 9 7 6 1 7 3 7 8 4 3 5 3 3 3 6 4 2 5 3 3 3 2 4 5 10 9 5 6 4 8 10 8 7 19 6 4 7 7
16 9 9 8 17 18 8 11 13 5 10 6 5 11 7 8 9 8 7 5 6 6 6 2 2 2 4 1 3 5 10 12 8 3 9 2 15 13 24 17 17 4 2 5 6
33 16 12 12 6 12 17 12 13 15 9 11 14 8 10 13 8 4 7 4 12 10 8 6 5 3 5 1 3 7 9 16 7 6 8 8 13 3 3 10 9 6 6 7 8
Wind_Direction
13 24 20 30 37 52 65 55 42 35 34 26 35 142 71 63 51 59 37 14 23 35 30 83 94 96 90 67 63 69 65 91 178 103 292 358 31 16 35 48 55 54 25 346 349
2 8 11 23 38 56 71 56 36 28 18 40 51 176 130 69 42 49 37 19 19 23 41 102 121 96 68 42 39 62 79 171 196 232 275 356 45 340 0 29 17 11 6 7 4
5 357 10 19 36 60 84 56 29 35 29 27 18 0 200 357 27 22 32 44 36 36 79 89 93 85 63 35 26 58 109 176 21 352 235 127 87 33 2 33 3 337 351 0 8
343 351 9 8 31 49 71 33 20 24 21 43 59 71 105 146 102 27 36 39 41 39 54 33 111 67 61 50 31 89 58 95 18 17 105 60 90 50 38 33 347 352 356 357 360
338 344 0 6 23 45 40 37 8 13 23 50 90 81 81 76 57 57 48 42 38 23 85 92 75 86 89 91 68 79 94 53 78 56 49 49 54 77 6 351 355 351 351 358 0
325 333 340 7 360 350 355 10 80 35 114 67 57 87 92 80 67 65 54 41 49 53 67 88 93 99 89 75 69 117 93 83 53 44 13 348 359 140 280 305 320 336 349 355 354
313 313 327 353 351 358 2 79 96 84 122 338 34 76 78 85 75 84 74 58 56 60 75 78 79 114 112 98 92 102 81 17 18 8 18 3 288 244 302 291 310 337 350 351 352
287 305 320 334 344 13 56 79 92 100 94 97 74 78 79 84 83 97 71 56 46 63 80 83 83 79 70 110 44 52 57 18 330 25 27 12 281 254 288 278 308 340 353 357 5
273 292 304 332 332 304 286 54 104 83 95 84 114 108 91 97 76 87 100 82 70 61 65 80 77 68 55 56 32 8 107 335 324 61 2 35 284 269 275 281 301 337 349 353 2
278 281 289 337 331 308 150 121 96 127 135 79 98 107 93 70 69 64 71 81 352 339 69 53 57 66 36 34 284 307 76 281 273 333 9 305 274 291 274 272 287 314 330 344 351
268 279 284 312 348 309 188 216 183 88 87 86 76 96 101 96 70 51 96 70 47 44 47 34 60 43 348 328 347 298 113 274 261 264 10 295 288 284 286 259 276 286 301 326 341
249 270 285 289 192 292 213 226 235 143 93 77 85 82 73 101 94 50 69 97 56 65 342 36 74 315 263 31 71 339 66 310 284 329 2 331 298 295 262 253 270 288 290 309 327
254 265 289 292 241 264 185 198 157 143 86 64 62 67 40 69 63 23 64 90 84 52 30 109 168 308 63 27 32 350 95 311 284 323 192 327 310 334 323 282 283 278 282 293 315
244 247 262 289 239 196 145 143 173 185 80 356 8 31 360 107 58 39 56 95 58 148 104 94 49 114 83 33 93 306 90 291 285 29 331 30 288 309 323 310 294 306 289 286 303
238 226 252 248 267 203 185 160 179 111 11 47 48 63 38 87 122 27 43 65 109 119 90 186 105 82 65 0 95 286 344 238 313 75 52 27 65 271 346 327 316 332 339 311 301
223 226 213 237 242 240 185 146 128 45 266 329 93 32 61 29 45 61 67 75 113 95 52 87 101 77 107 300 175 297 223 35 42 40 35 339 95 285 295 280 304 313 328 319 309
227 225 206 209 218 206 191 168 48 129 0 251 161 117 90 38 40 37 38 22 124 71 6 356 12 72 45 4 43 44 45 358 358 11 219 348 66 248 280 274 249 292 313 316 312
225 227 214 201 197 187 202 22 117 192 208 6 46 68 102 28 27 50 109 140 355 73 97 130 322 72 15 94 219 340 232 140 212 295 280 303 244 260 219 289 295 292 301 307 309
222 217 214 202 198 190 195 52 188 187 151 142 4 90 317 210 185 207 192 173 169 169 146 125 299 354 66 49 112 308 33 350 102 48 2 271 288 295 280 306 312 300 307 320 318
217 210 197 200 188 192 100 246 153 139 121 122 199 138 213 206 181 208 193 176 156 116 126 186 58 309 68 199 46 225 144 56 14 48 314 297 281 249 314 314 329 323 318 318 323
202 183 209 190 185 197 169 234 205 164 130 135 165 142 212 199 212 215 209 152 169 119 90 130 103 282 79 209 177 273 348 56 109 96 158 290 271 211 226 271 293 304 318 319 316
185 184 185 178 144 279 164 183 169 154 151 109 111 1 191 167 186 249 215 200 171 152 147 180 146 144 205 250 8 282 241 199 122 242 89 130 276 201 226 243 264 292 316 320 318
177 165 183 180 160 241 298 210 209 154 195 136 117 152 163 209 174 200 185 113 164 160 168 179 247 24 353 7 356 252 207 147 91 91 195 137 264 301 260 255 245 291 325 335 337
172 143 169 193 179 149 159 202 194 180 148 137 123 116 180 75 305 203 194 169 183 194 189 151 107 172 196 193 127 204 221 185 149 127 167 226 284 286 275 260 267 305 325 332 347
191 213 182 189 217 172 167 171 152 181 86 170 64 168 167 156 298 207 161 140 177 185 167 184 200 167 258 225 236 226 186 193 200 189 175 245 217 258 252 247 287 294 324 325 339
188 179 177 149 168 188 188 193 176 167 151 216 190 182 164 171 198 203 150 198 190 172 170 201 191 118 289 289 225 261 223 209 216 262 284 84 281 236 273 274 258 222 265 299 312
202 204 200 164 159 176 210 198 192 134 204 191 175 120 181 217 175 284 185 175 157 152 170 156 137 111 267 330 304 278 223 188 186 214 162 188 225 177 269 239 247 235 250 274 282